Weather History for Hazlehurst, GA

Change the Weather History Date:

Thursday, December 19, 2013

  Actual Average Record
Temperature  
Mean Temperature 50 °F -  
Max Temperature 78 °F 56 °F 78 °F (2013)
Min Temperature 32 °F 29 °F 32 °F (2013)
Degree Days  
Heating Degree Days 16    
Moisture  
Dew Point 42 °F    
Average Humidity 79    
Maximum Humidity 100    
Minimum Humidity 45    
Precipitation  
Precipitation 0.00 in - - ()
Sea Level Pressure  
Sea Level Pressure 30.28 in    
Wind  
Wind Speed 2 mph (SE)    
Max Wind Speed 6 mph    
Max Gust Speed -    
Visibility 10 miles    
Events      
Averages and records for this station are not official NWS values.
T = Trace of Precipitation, MM = Missing Value Source: NWS Daily Summary

Daily Weather History Graph

Daily Weather History Graph

Search for Another Location

Airport:

Trip Planner

Search our weather history database for the weather conditions in past years. The results will help you decide how hot, cold, wet, or windy it might be!

Date:

Astronomy

Dec. 19, 2013 Rise Set
Actual Time 7:25 AM EST 5:29 PM EST
Civil Twilight 6:58 AM EST 5:56 PM EST
Nautical Twilight 6:28 AM EST 6:27 PM EST
Astronomical Twilight 5:58 AM EST 6:57 PM EST
Moon 7:47 PM EST (12/19) 8:50 AM EST (12/19)
Length of Visible Light 10h 58m
Length of Day
10h 04m
Waning Gibbous, 95% of the Moon is Illuminated
Dec 19
Waning Gibbous
Dec 25
Last Quarter
Jan 1
New
Jan 7
First Quarter
Jan 15
Full

Hourly Weather History & Observations

Time (EST) Temp. Windchill Dew Point Humidity Pressure Visibility Wind Dir Wind Speed Gust Speed Precip Events Conditions
12:15 AM 35.1 °F - 33.1 °F 92% 30.32 in 10.0 mi Calm Calm - N/A   Clear
12:35 AM 35.1 °F - 32.4 °F 90% 30.31 in 10.0 mi Calm Calm - N/A   Clear
12:55 AM 35.2 °F 32.4 °F 32.7 °F 91% 30.31 in 10.0 mi SE 3.5 mph - N/A   Clear
1:15 AM 35.6 °F 32.8 °F 32.7 °F 89% 30.31 in 10.0 mi SE 3.5 mph - N/A   Clear
1:35 AM 36.0 °F 33.3 °F 32.4 °F 87% 30.30 in 10.0 mi SE 3.5 mph - N/A   Clear
1:55 AM 36.5 °F - 32.2 °F 84% 30.30 in 10.0 mi Calm Calm - N/A   Scattered Clouds
2:15 AM 36.9 °F - 32.4 °F 84% 30.31 in 10.0 mi Calm Calm - N/A   Clear
2:35 AM 36.5 °F 33.9 °F 32.2 °F 84% 30.30 in 10.0 mi SSE 3.5 mph - N/A   Clear
2:55 AM 37.8 °F 35.3 °F 32.0 °F 80% 30.31 in 10.0 mi SE 3.5 mph - N/A   Clear
3:15 AM 37.0 °F - 32.7 °F 84% 30.31 in 10.0 mi Calm Calm - N/A   Clear
3:35 AM 36.9 °F - 33.6 °F 88% 30.31 in 10.0 mi Calm Calm - N/A   Scattered Clouds
3:55 AM 36.1 °F - 35.2 °F 97% 30.31 in 10.0 mi Calm Calm - N/A   Clear
4:15 AM 34.2 °F 31.2 °F 34.3 °F 100% 30.31 in 10.0 mi SSE 3.5 mph - N/A   Clear
4:35 AM 34.2 °F 31.2 °F 34.3 °F 100% 30.31 in 10.0 mi SSE 3.5 mph - N/A   Clear
4:55 AM 34.9 °F - 34.2 °F 97% 30.31 in 10.0 mi Calm Calm - N/A   Clear
5:15 AM 35.1 °F 32.2 °F 34.0 °F 96% 30.30 in 10.0 mi SE 3.5 mph - N/A   Clear
5:35 AM 36.0 °F 33.3 °F 34.2 °F 93% 30.30 in 10.0 mi SSE 3.5 mph - N/A   Scattered Clouds
5:55 AM 35.8 °F - 34.5 °F 95% 30.31 in 10.0 mi Calm Calm - N/A   Scattered Clouds
6:15 AM 34.9 °F - 33.8 °F 96% 30.31 in 10.0 mi Calm Calm - N/A   Scattered Clouds
6:35 AM 34.3 °F - 34.3 °F 100% 30.31 in 7.0 mi Calm Calm - N/A   Clear
6:55 AM 33.8 °F - 34.0 °F 100% 30.32 in 4.0 mi Calm Calm - N/A   Clear
7:15 AM 32.5 °F - 32.5 °F 100% 30.32 in 10.0 mi Calm Calm - N/A   Clear
7:35 AM 32.7 °F - 32.7 °F 100% 30.33 in 1.8 mi Calm Calm - N/A   Mist
7:55 AM 32.4 °F - 32.4 °F 100% 30.33 in 10.0 mi Calm Calm - N/A   Scattered Clouds
8:15 AM 33.6 °F - 33.8 °F 100% 30.34 in 10.0 mi Calm Calm - N/A   Scattered Clouds
8:35 AM 35.8 °F - 35.2 °F 98% 30.34 in 10.0 mi Calm Calm - N/A   Scattered Clouds
8:55 AM 38.7 °F - 36.7 °F 93% 30.35 in 10.0 mi Calm Calm - N/A   Scattered Clouds
9:15 AM 42.4 °F - 37.8 °F 83% 30.34 in 10.0 mi Calm Calm - N/A   Scattered Clouds
9:35 AM 45.7 °F - 39.2 °F 78% 30.35 in 10.0 mi Calm Calm - N/A   Scattered Clouds
9:55 AM 48.9 °F - 39.7 °F 71% 30.35 in 10.0 mi Calm Calm - N/A   Scattered Clouds
10:15 AM 50.9 °F - 40.3 °F 67% 30.35 in 10.0 mi Calm Calm - N/A   Scattered Clouds
10:35 AM 53.6 °F - 40.8 °F 62% 30.36 in 10.0 mi Calm Calm - N/A   Scattered Clouds
10:55 AM 55.9 °F - 37.8 °F 51% 30.35 in 10.0 mi Calm Calm - N/A   Scattered Clouds
11:15 AM 57.4 °F - 36.5 °F 46% 30.35 in 10.0 mi East 3.5 mph - N/A   Scattered Clouds
11:35 AM 58.6 °F - 37.2 °F 45% 30.34 in 10.0 mi ENE 4.6 mph - N/A   Scattered Clouds
11:55 AM 59.5 °F - 39.7 °F 48% 30.33 in 10.0 mi Calm Calm - N/A   Scattered Clouds
12:15 PM 60.8 °F - 41.7 °F 49% 30.32 in 10.0 mi South 3.5 mph - N/A   Scattered Clouds
12:35 PM 61.7 °F - 43.3 °F 51% 30.30 in 10.0 mi Calm Calm - N/A   Scattered Clouds
12:55 PM 62.8 °F - 45.7 °F 54% 30.29 in 10.0 mi SE 4.6 mph - N/A   Scattered Clouds
1:15 PM 63.5 °F - 46.6 °F 54% 30.28 in 10.0 mi SSW 3.5 mph - N/A   Scattered Clouds
1:35 PM 64.2 °F - 46.9 °F 53% 30.27 in 10.0 mi ESE 3.5 mph - N/A   Scattered Clouds
1:55 PM 65.7 °F - 47.8 °F 53% 30.26 in 10.0 mi SSE 3.5 mph - N/A   Scattered Clouds
2:15 PM 65.8 °F - 48.2 °F 53% 30.25 in 10.0 mi South 3.5 mph - N/A   Mostly Cloudy
2:35 PM 66.2 °F - 48.4 °F 53% 30.24 in 10.0 mi South 3.5 mph - N/A   Mostly Cloudy
2:55 PM 66.7 °F - 48.6 °F 52% 30.24 in 10.0 mi Calm Calm - N/A   Mostly Cloudy
3:15 PM 67.1 °F - 48.2 °F 51% 30.23 in 10.0 mi South 4.6 mph - N/A   Mostly Cloudy
3:35 PM 67.1 °F - 48.2 °F 51% 30.23 in 10.0 mi SW 4.6 mph - N/A   Mostly Cloudy
3:55 PM 67.1 °F - 48.7 °F 52% 30.22 in 10.0 mi SE 3.5 mph - N/A   Mostly Cloudy
4:15 PM 66.9 °F - 49.1 °F 53% 30.22 in 10.0 mi SSE 3.5 mph - N/A   Mostly Cloudy
4:35 PM 66.4 °F - 48.7 °F 53% 30.22 in 10.0 mi SSE 3.5 mph - N/A   Mostly Cloudy
4:55 PM 65.3 °F - 48.9 °F 55% 30.22 in 10.0 mi Calm Calm - N/A   Scattered Clouds
5:15 PM 63.1 °F - 49.5 °F 61% 30.23 in 10.0 mi Calm Calm - N/A   Scattered Clouds
5:35 PM 60.3 °F - 49.6 °F 68% 30.24 in 10.0 mi Calm Calm - N/A   Scattered Clouds
5:55 PM 57.6 °F - 50.0 °F 76% 30.24 in 10.0 mi Calm Calm - N/A   Clear
6:15 PM 55.2 °F - 50.4 °F 84% 30.24 in 10.0 mi Calm Calm - N/A   Clear
6:35 PM 54.0 °F - 50.2 °F 87% 30.25 in 10.0 mi Calm Calm - N/A   Clear
6:55 PM 52.5 °F - 49.8 °F 91% 30.25 in 10.0 mi Calm Calm - N/A   Clear
7:15 PM 51.8 °F - 49.3 °F 91% 30.25 in 10.0 mi Calm Calm - N/A   Clear
7:35 PM 51.4 °F - 49.6 °F 94% 30.25 in 10.0 mi Calm Calm - N/A   Clear
7:55 PM 51.1 °F - 49.3 °F 94% 30.25 in 10.0 mi Calm Calm - N/A   Clear
8:15 PM 51.1 °F - 49.1 °F 93% 30.25 in 10.0 mi Calm Calm - N/A   Clear
8:35 PM 50.2 °F - 48.7 °F 95% 30.25 in 10.0 mi East 3.5 mph - N/A   Clear
8:55 PM 51.1 °F - 48.9 °F 92% 30.24 in 10.0 mi ESE 3.5 mph - N/A   Clear
9:15 PM 52.9 °F - 48.7 °F 86% 30.24 in 10.0 mi ESE 4.6 mph - N/A   Clear
9:35 PM 55.0 °F - 50.2 °F 84% 30.24 in 10.0 mi ESE 5.8 mph - N/A   Clear
9:55 PM 56.5 °F - 51.6 °F 84% 30.24 in 10.0 mi ESE 4.6 mph - N/A   Scattered Clouds
10:15 PM 56.5 °F - 52.3 °F 86% 30.24 in 10.0 mi SE 3.5 mph - N/A   Scattered Clouds
10:35 PM 56.1 °F - 52.7 °F 88% 30.24 in 10.0 mi ESE 4.6 mph - N/A   Clear
10:55 PM 55.6 °F - 52.5 °F 89% 30.24 in 10.0 mi SE 3.5 mph - N/A   Clear
11:15 PM 55.0 °F - 52.5 °F 91% 30.23 in 10.0 mi SE 3.5 mph - N/A   Scattered Clouds
11:35 PM 54.5 °F - 52.3 °F 92% 30.23 in 10.0 mi SE 4.6 mph - N/A   Clear
11:55 PM 54.3 °F - 52.3 °F 93% 30.22 in 10.0 mi SE 3.5 mph - N/A   Clear